Regional Weather Roundup
Issued by NWS

Home | Current Version | Previous Version | Text Only | Print | Product List | Glossary Off
Versions: 1 2 3 4 5 6 7 8 9 10 11 12 13 14 15 16 17 18 19 20 21 22 23 24 25 26 27 28 29 30 31 32 33 34 35 36 37 38 39 40 41 42 43 44 45 46 47 48 49 50

000
ASUS43 KOAX 251702
RWRNE

WEATHER ROUNDUP FOR NEBRASKA
NATIONAL WEATHER SERVICE OMAHA NE
1100 AM CST SUN FEB 25 2018

NOTES: SATELLITE DATA IS BEING USED TO AUGMENT CLOUD COVER ABOVE
       12000 FEET.
       "FAIR" INDICATES FEW OR NO CLOUDS BELOW 12,000 FEET WITH NO
       SIGNIFICANT WEATHER AND/OR OBSTRUCTIONS TO VISIBILITY.


NEZ001>004-019>022-054>056-251800-
NEBRASKA PANHANDLE

CITY           SKY/WX    TMP DP  RH WIND       PRES   REMARKS
SCOTTSBLUFF    SUNNY     33  13  43 W21G26    29.88R WCI  21
ALLIANCE       SUNNY     28  16  60 W21       29.84R WCI  15
CHADRON        SUNNY     24  11  57 W13       29.87R WCI  12
GORDON         FAIR      26  13  59 W13       29.83R WCI  15
KIMBALL        SUNNY     29  13  53 W15       29.88R WCI  17
SIDNEY         SUNNY     34   9  35 W22G33    29.90R WCI  22
$$

NEZ057>060-069>072-079>082-251800-
SOUTHWEST NEBRASKA

CITY           SKY/WX    TMP DP  RH WIND       PRES   REMARKS
NORTH PLATTE   SUNNY     32  16  51 W10       29.94S WCI  24
IMPERIAL       SUNNY     38  15  39 W10       29.94S WCI  31
LEXINGTON      SUNNY     40  20  45 SW10      29.96S WCI  33
MCCOOK         MOSUNNY   38  19  46 SW15      29.98R WCI  29
OGALLALA       SUNNY     37  16  42 W23G33    29.91S WCI  26
$$

NEZ005>010-023>029-035>040-094-251800-
NORTH CENTRAL NEBRASKA

CITY           SKY/WX    TMP DP  RH WIND       PRES   REMARKS
VALENTINE      SUNNY     28  13  53 W13       29.86R WCI  17
AINSWORTH      MOSUNNY   28  17  65 W9        29.88R WCI  19
BROKEN BOW     SUNNY     30  18  60 SW9       29.92R WCI  22
O`NEILL        SUNNY     28  16  61 W9        29.91R WCI  19
ORD            SUNNY     33  17  51 W8        29.93R WCI  26
THEDFORD       MOSUNNY   33  19  56 W14       29.89S WCI  23
$$

NEZ041-046>049-061>064-073>077-083>087-251800-
SOUTH CENTRAL NEBRASKA

CITY           SKY/WX    TMP DP  RH WIND       PRES   REMARKS
AURORA         SUNNY     36  22  56 W13       29.97R WCI  28
HASTINGS       SUNNY     39  18  42 W16       29.97R WCI  30
HEBRON         SUNNY     40  25  53 W9        30.01R WCI  34
HOLDREGE       SUNNY     41  17  39 W18       29.97S
KEARNEY        SUNNY     38  16  40 SW14      29.97S WCI  30
YORK           SUNNY     34  25  69 W13       29.98R WCI  25
$$

NEZ011>018-030>034-042>045-251800-
NORTHEAST NEBRASKA

CITY           SKY/WX    TMP DP  RH WIND       PRES   REMARKS
NORFOLK        SUNNY     31  16  54 VRB6      29.92R WCI  25
ALBION         SUNNY     32  17  55 W5        29.94S WCI  27
BLAIR          SUNNY     31  20  65 W9        29.96R WCI  22
COLUMBUS       SUNNY     32  16  51 W10       29.97R WCI  24
FREMONT        SUNNY     30  20  65 W12       29.98R WCI  21
TEKAMAH        SUNNY     30  19  63 SW7       29.96R WCI  23
WAYNE          SUNNY     30  15  53 W13       29.93R WCI  20
$$

NEZ050>053-065>068-078-088>093-251800-
SOUTHEAST NEBRASKA

CITY           SKY/WX    TMP DP  RH WIND       PRES   REMARKS
LINCOLN        SUNNY     35  25  66 SW10      30.01R WCI  27
OMAHA EPPLEY   MOSUNNY   34  20  56 W9        29.99R WCI  27
BEATRICE       SUNNY     38  28  68 W13       30.02R WCI  30
FALLS CITY     SUNNY     40  28  62 SW15      30.03R WCI  32
NEBRASKA CITY  SUNNY     34  30  85 SW9       30.00R WCI  27
PLATTSMOUTH    SUNNY     33  25  71 SW8       29.99R WCI  26
$$

NEZ044-045-051>053-067-251800-
OMAHA AREA

CITY           SKY/WX    TMP DP  RH WIND       PRES   REMARKS
OMAHA EPPLEY   MOSUNNY   34  20  56 W9        29.99R WCI  27
BLAIR          SUNNY     31  20  65 W9        29.96R WCI  22
FREMONT        SUNNY     30  20  65 W12       29.98R WCI  21
MILLARD        SUNNY     34  22  61 W7        29.99R WCI  28
OFFUTT AFB     SUNNY     33  24  68 W7        29.99R WCI  27
PLATTSMOUTH    SUNNY     33  25  71 SW8       29.99R WCI  26
WAHOO          FAIR      32  21  62 W3        29.98R
$$




USA.gov is the U.S. government's official web portal to all federal, state and local government web resources and services.